WetterOnline ( https://www.wetteronline.de )

Wetter aktuell Regen

Aktuelles Wetter: Zwiesel (613m)

6-stündlich | Neueste Meldungen
Ortszeit Temperatur Wetter
So, 19.09. 8:00 9.3° C wolkenlos
So, 19.09. 2:00 8.3° C wolkenlos
Sa, 18.09. 20:00 13.1° C bewölkt
Sa, 18.09. 14:00 14.6° C bewölkt
Sa, 18.09. 8:00 10.4° C bewölkt
Sa, 18.09. 2:00 10.8° C bedeckt
Fr, 17.09. 20:00 12.4° C bedeckt
Fr, 17.09. 14:00 14.4° C bedeckt
Ortszeit Temperatur Wetter
So, 19.09. 11:00 14.1° C leicht bewölkt
So, 19.09. 10:50 14.1° C leicht bewölkt
So, 19.09. 10:40 14.3° C wolkig
So, 19.09. 10:30 13.3° C wolkig
So, 19.09. 10:20 13.3° C wolkig
So, 19.09. 10:10 13.2° C leicht bewölkt
So, 19.09. 10:00 12.7° C fast wolkenlos
So, 19.09. 9:30 12.8° C wolkenlos
So, 19.09. 9:00 12.2° C wolkenlos
So, 19.09. 8:30 11.4° C wolkenlos
So, 19.09. 8:00 9.3° C wolkenlos
Ortszeit Relative Feuchte Sichtweite
So, 19.09. 8:00 84% 60 km
So, 19.09. 2:00 97% 30 km
Sa, 18.09. 20:00 84% 50 km
Sa, 18.09. 14:00 71% 45 km
Sa, 18.09. 8:00 97% 18 km
Sa, 18.09. 2:00 97% 17 km
Fr, 17.09. 20:00 88% 45 km
Fr, 17.09. 14:00 71% 55 km
Ortszeit Relative Feuchte Sichtweite
So, 19.09. 11:00 68% 45 km
So, 19.09. 10:50 68% -
So, 19.09. 10:40 72% -
So, 19.09. 10:30 73% >70 km
So, 19.09. 10:20 73% -
So, 19.09. 10:10 73% -
So, 19.09. 10:00 74% >70 km
So, 19.09. 9:30 74% >70 km
So, 19.09. 9:00 72% 65 km
So, 19.09. 8:30 78% 55 km
So, 19.09. 8:00 84% 60 km
Ortszeit Niederschlagsmenge Niederschlagsart
So, 19.09. 8:00 0.1 l/m2 in 12 Std. -
So, 19.09. 2:00 0.0 l/m2 in 6 Std. -
Sa, 18.09. 20:00 0.0 l/m2 in 12 Std. -
Sa, 18.09. 14:00 0.0 l/m2 in 6 Std. -
Sa, 18.09. 8:00 0.1 l/m2 in 12 Std. Regen
Sa, 18.09. 2:00 0.1 l/m2 in 6 Std. Regen
Fr, 17.09. 20:00 0.0 l/m2 in 12 Std. -
Fr, 17.09. 14:00 0.0 l/m2 in 6 Std. -
Ortszeit Niederschlagsmenge Niederschlagsart
So, 19.09. 11:00 0.0 l/m2 in 1 Std. -
So, 19.09. 10:50 keine Meldung -
So, 19.09. 10:40 keine Meldung -
So, 19.09. 10:30 0.0 l/m2 in 1 Std. -
So, 19.09. 10:20 keine Meldung -
So, 19.09. 10:10 keine Meldung -
So, 19.09. 10:00 0.0 l/m2 in 1 Std. -
So, 19.09. 9:30 0.0 l/m2 in 1 Std. -
So, 19.09. 9:00 0.0 l/m2 in 1 Std. -
So, 19.09. 8:30 0.0 l/m2 in 1 Std. -
So, 19.09. 8:00 0.1 l/m2 in 1 Std. -
Ortszeit Stärke Spitze Richtung
km/h Bft. km/h Grad Sektor
So, 19.09. 8:00 0 0 11 - -
So, 19.09. 2:00 2 1 17 30° NO
Sa, 18.09. 20:00 7 2 25 40° NO
Sa, 18.09. 14:00 7 2 36 300° NW
Sa, 18.09. 8:00 2 1 7 30° NO
Sa, 18.09. 2:00 0 0 7 - -
Fr, 17.09. 20:00 2 1 26 270° W
Fr, 17.09. 14:00 11 2 25 280° W
Ortszeit Stärke Spitze Richtung
km/h Bft. km/h Grad Sektor
So, 19.09. 11:00 9 2 19 40° NO
So, 19.09. 10:50 9 2 - 40° NO
So, 19.09. 10:40 7 2 - 30° NO
So, 19.09. 10:30 7 2 14 30° NO
So, 19.09. 10:20 7 2 - 30° NO
So, 19.09. 10:10 7 2 - 20° N
So, 19.09. 10:00 11 2 19 30° NO
So, 19.09. 9:30 9 2 17 10° N
So, 19.09. 9:00 4 1 7 10° N
So, 19.09. 8:30 2 1 6 80° O
So, 19.09. 8:00 0 0 7 - -
Ortszeit Untergrenze Bedeckung Gattung
total tief tief mittel hoch
So, 19.09. 8:00 - 0/8 0/8 - - -
So, 19.09. 2:00 - 0/8 0/8 - - -
Sa, 18.09. 20:00 1800 m 7/8 7/8 - - -
Sa, 18.09. 14:00 780 m 7/8 7/8 - - -
Sa, 18.09. 8:00 90 m 7/8 7/8 - - -
Sa, 18.09. 2:00 2100 m 8/8 8/8 - - -
Fr, 17.09. 20:00 1500 m 8/8 8/8 - - -
Fr, 17.09. 14:00 1350 m 8/8 8/8 - - -
Ortszeit Bedeckungsgrad in Achtel und Wolkenuntergrenze
So, 19.09. 11:00 3(750m)
So, 19.09. 10:50 3(750m)
So, 19.09. 10:40 6(750m)
So, 19.09. 10:30 6(720m)
So, 19.09. 10:20 6(720m)
So, 19.09. 10:10 4(720m)
So, 19.09. 10:00 1(750m)
So, 19.09. 9:30 keine Wolken
So, 19.09. 9:00 keine Wolken
So, 19.09. 8:30 keine Wolken
So, 19.09. 8:00 keine Wolken
Ortszeit Luftdruck NN (hPa) Tendenz (hPa in 3 Std.)
So, 19.09. 8:00 1015 - 0,5
So, 19.09. 2:00 1017 - 0,3
Sa, 18.09. 20:00 1016 + 0,1
Sa, 18.09. 14:00 1015 0,0
Sa, 18.09. 8:00 1017 + 0,2
Sa, 18.09. 2:00 1017 - 0,2
Fr, 17.09. 20:00 1016 + 0,2
Fr, 17.09. 14:00 1016 - 0,6
Ortszeit Luftdruck NN (hPa) Tendenz (hPa in 3 Std.)
So, 19.09. 11:00 1014 + 0,1
So, 19.09. 10:50 1014 keine Meldung
So, 19.09. 10:40 1014 keine Meldung
So, 19.09. 10:30 1014 + 0,3
So, 19.09. 10:20 1014 keine Meldung
So, 19.09. 10:10 1014 keine Meldung
So, 19.09. 10:00 1015 + 0,2
So, 19.09. 9:30 1015 + 0,1
So, 19.09. 9:00 1015 + 0,1
So, 19.09. 8:30 1015 - 0,2
So, 19.09. 8:00 1015 - 0,5
Ortszeit Schneehöhe (cm)
So, 19.09. 8:00 0
So, 19.09. 2:00 0
Sa, 18.09. 20:00 0
Sa, 18.09. 14:00 0
Sa, 18.09. 8:00 0
Sa, 18.09. 2:00 0
Fr, 17.09. 20:00 0
Fr, 17.09. 14:00 0
Ortszeit Schneehöhe (cm)
So, 19.09. 11:00 0
So, 19.09. 10:50 0
So, 19.09. 10:40 0
So, 19.09. 10:30 0
So, 19.09. 10:20 0
So, 19.09. 10:10 0
So, 19.09. 10:00 0
So, 19.09. 9:30 0
So, 19.09. 9:00 0
So, 19.09. 8:30 0
So, 19.09. 8:00 0
Link zu dieser Seite / Seite empfehlen

Das Wetter in ...